Været på Ålesund Lufhavn, Vigra (ENAL)

 

Time for time, neste 48 timer:

Detaljert varsel fra yr.no - 48 timer

Vindprognose for Breisundet:

Vindvarsel

Upper Winds 3000 fot akkurat nå:

ENAL akkurat nå:

  • METAR: 200150Z AUTO 35003KT 9999 FEW057/// 03/M00 Q1008
  • TAF: TAF 191700Z 1918/1923 32015KT 9999 -SHRA FEW015 BKN025 BECMG 1921/1923 36005KT